FW8874 Weather Reports


time (UTC)temp
F
wind
direction
speed
knots
gust
knots
rain 1hr
in
rain 24hr
in
rain mn
in
humidity
%
barometer
mb
20260505183029 56 313 0.0 2.6 0.00 0.00 0.00 73 1011.7
20260505181535 56 0 0.0 1.7 0.00 0.00 0.00 73 1011.6
20260505180029 56 0 0.9 2.6 0.00 0.00 0.00 73 1011.7
20260505174538 56 0 0.9 4.3 0.00 0.00 0.00 72 1011.8
20260505173030 57 306 0.9 5.2 0.00 0.00 0.00 71 1011.9
20260505171533 57 308 1.7 7.0 0.00 0.00 0.00 71 1011.9
20260505170036 57 332 1.7 6.1 0.00 0.00 0.00 71 1012.0
20260505164529 57 298 1.7 6.1 0.00 0.00 0.00 69 1012.0
20260505163034 57 120 0.9 4.3 0.00 0.00 0.00 68 1011.9
20260505161530 57 1 0.9 4.3 0.00 0.00 0.00 69 1012.0
20260505153035 57 1 0.0 4.3 0.00 0.00 0.00 70 1012.1
20260505151545 57 296 0.9 3.5 0.00 0.00 0.00 70 1012.1
20260505124532 56 0 0.9 4.3 0.00 0.00 0.00 72 1012.8
20260505123033 56 308 1.7 6.1 0.00 0.00 0.00 70 1012.7
20260505121531 55 321 0.9 7.0 0.00 0.00 0.00 73 1012.7
20260505120038 55 29 2.6 7.0 0.00 0.00 0.00 74 1012.9
20260505114530 54 316 1.7 7.0 0.00 0.00 0.00 77 1012.9
20260505113030 55 25 1.7 6.1 0.00 0.00 0.00 76 1012.9
20260505111532 54 32 2.6 7.0 0.00 0.00 0.00 77 1013.0
20260505101532 53 28 2.6 8.7 0.00 0.00 0.00 78 1013.2
20260505100034 53 72 2.6 7.8 0.00 0.00 0.00 79 1013.4
20260505094530 53 337 0.9 5.2 0.00 0.00 0.00 83 1013.4
20260505093040 52 58 1.7 7.8 0.00 0.00 0.00 83 1013.4
20260505091532 52 25 2.6 8.7 0.00 0.00 0.00 82 1013.6
20260505090038 52 72 3.5 8.7 0.00 0.00 0.00 82 1013.5
20260505084532 52 309 3.5 7.0 0.00 0.00 0.00 83 1013.4
20260505083033 53 29 3.5 7.8 0.00 0.00 0.00 82 1013.6
20260505081532 52 7 1.7 8.7 0.00 0.00 0.00 83 1013.6
20260505080030 53 13 2.6 10.4 0.00 0.00 0.00 82 1013.5
20260505074531 53 292 2.6 9.6 0.00 0.00 0.00 84 1013.5
20260505073037 52 330 1.7 7.0 0.00 0.00 0.00 86 1013.3
20260505071529 52 316 0.9 4.3 0.00 0.00 0.00 88 1013.5
20260505070032 51 299 0.9 4.3 0.00 0.00 0.00 89 1013.6
20260505064531 51 321 0.9 4.3 0.00 0.00 0.00 89 1013.6
20260505063038 50 34 0.9 5.2 0.00 0.00 0.00 90 1013.6
20260505061531 50 0 0.9 5.2 0.00 0.00 0.00 92 1013.5
20260505060034 50 0 0.0 2.6 0.00 0.00 0.00 93 1013.8
20260505054537 49 44 0.0 2.6 0.00 0.00 0.00 92 1013.5
20260505053041 48 18 0.9 3.5 0.00 0.00 0.00 93 1013.6
20260505051535 48 0 0.9 4.3 0.00 0.00 0.00 92 1013.6
20260505041532 49 323 0.0 2.6 0.00 0.00 0.00 91 1013.8
20260505040030 49 0 0.0 1.7 0.00 0.00 0.00 91 1013.7
20260505034532 49 0 0.0 1.7 0.00 0.00 0.00 91 1013.7
20260505033045 49 0 0.0 1.7 0.00 0.00 0.00 90 1013.8
20260505031533 50 0 0.0 1.7 0.00 0.00 0.00 90 1013.9
20260505030030 50 29 0.9 3.5 0.00 0.00 0.00 90 1013.9
20260505024530 50 0 0.0 2.6 0.00 0.00 0.00 90 1013.9
20260505023029 50 0 0.0 2.6 0.00 0.00 0.00 90 1013.9
20260505021529 50 0 0.0 1.7 0.00 0.00 0.00 90 1013.8
20260505020030 51 19 0.0 2.6 0.00 0.00 0.00 89 1013.9
20260505014533 51 0 0.0 1.7 0.00 0.00 0.00 89 1014.1
20260505013031 51 30 0.0 1.7 0.00 0.00 0.00 89 1014.1
20260505011532 51 0 0.0 0.0 0.00 0.00 0.00 88 1014.3
20260505010031 51 0 0.0 1.7 0.00 0.00 0.00 88 1014.3
20260505004542 51 0 0.0 0.9 0.00 0.00 0.00 88 1014.4
20260505003030 52 0 0.0 3.5 0.00 0.00 0.00 87 1014.5
20260505001532 52 0 0.9 4.3 0.00 0.00 0.00 87 1014.5
20260505000031 52 14 1.7 4.3 0.00 0.00 0.00 87 1014.7
20260504234536 53 68 0.9 4.3 0.00 0.00 0.00 86 1014.7
20260504233031 53 46 0.9 5.2 0.00 0.00 0.00 86 1014.7
20260504231542 53 42 0.0 3.5 0.00 0.00 0.00 86 1014.7
20260504230030 53 62 0.0 4.3 0.00 0.00 0.00 86 1014.6
20260504224532 53 0 0.0 2.6 0.00 0.00 0.00 86 1014.8
20260504223030 53 15 0.9 2.6 0.00 0.00 0.00 87 1014.9
20260504221530 54 6 0.0 2.6 0.00 0.00 0.00 87 1014.9
20260504220031 54 0 0.0 1.7 0.00 0.00 0.00 87 1015.1
20260504214537 54 346 0.0 2.6 0.00 0.00 0.00 87 1015.0
20260504213032 54 0 0.0 1.7 0.00 0.00 0.00 86 1015.1
20260504211530 54 0 0.9 2.6 0.00 0.00 0.00 86 1015.0
20260504210030 54 25 0.0 2.6 0.00 0.00 0.00 86 1015.0
20260504204604 54 0 0.0 0.9 0.00 0.00 0.00 86 1015.0
20260504203032 54 0 0.0 2.6 0.00 0.00 0.00 85 1015.0
20260504201530 54 77 0.0 3.5 0.00 0.00 0.00 85 1014.9
20260504200035 55 0 0.0 2.6 0.00 0.00 0.00 85 1014.8
20260504194534 55 0 0.0 4.3 0.00 0.00 0.00 84 1014.8
20260504193033 55 0 0.0 1.7 0.00 0.00 0.00 84 1014.7
20260504191531 55 26 0.0 3.5 0.00 0.00 0.00 84 1014.6
20260504190035 56 23 0.0 2.6 0.00 0.00 0.00 83 1014.5
20260504184532 56 0 0.9 4.3 0.00 0.00 0.00 83 1014.5